When you browse on this site, cookies collect data to enhance your experience and personalize the content and advertising you see.
Visit our Privacy Policy to learn more. By continuing to use the site, you agree to this use of cookies and data.
  • In United Kingdom
  • List of Countries
  • For 7 days
  • Water Temperature
  • Satellite Maps
  • Weather Map
  • Weather Widgets
  • user-avatar
    Login

    Hourly Weather Khampho

    Today, 23 February, Saturday

    Time Temperature Precipitation Wind Pressure Humidity
    00:00 +25°C° 0 mm 1 mps 737 mmHg 86%
    01:00 +24°C° 0 mm 1 mps 737 mmHg 88%
    02:00 +24°C° 0 mm 1 mps 737 mmHg 88%
    03:00 +24°C° 0 mm 1 mps 737 mmHg 89%
    04:00 +24°C° 0 mm 1 mps 736 mmHg 89%
    05:00 +24°C° 0 mm 1 mps 737 mmHg 84%
    06:00 +25°C° 0 mm 1 mps 737 mmHg 79%
    07:00 +24°C° 0 mm 0 mps 737 mmHg 74%
    08:00 +28°C° 0 mm 1 mps 738 mmHg 64%
    09:00 +31°C° 0 mm 2 mps 738 mmHg 54%
    10:00 +34°C° 0 mm 3 mps 738 mmHg 45%
    11:00 +36°C° 0 mm 3 mps 738 mmHg 41%
    12:00 +37°C° 0 mm 3 mps 737 mmHg 37%
    13:00 +38°C° 0 mm 3 mps 737 mmHg 36%
    14:00 +38°C° 0 mm 3 mps 736 mmHg 37%
    15:00 +37°C° 0 mm 3 mps 736 mmHg 37%
    16:00 +37°C° 0 mm 3 mps 735 mmHg 38%
    17:00 +35°C° 0 mm 2 mps 736 mmHg 42%
    18:00 +32°C° 0 mm 2 mps 736 mmHg 46%
    19:00 +31°C° 0 mm 1 mps 736 mmHg 51%
    20:00 +30°C° 0 mm 1 mps 736 mmHg 53%
    21:00 +29°C° 0 mm 1 mps 737 mmHg 54%
    22:00 +29°C° 0 mm 1 mps 737 mmHg 56%
    23:00 +28°C° 0 mm 1 mps 737 mmHg 60%

    Tomorrow, 24 February, Sunday

    Time Temperature Precipitation Wind Pressure Humidity
    00:00 +27°C° 0 mm 1 mps 737 mmHg 64%
    01:00 +26°C° 0 mm 1 mps 737 mmHg 68%
    02:00 +26°C° 0 mm 1 mps 737 mmHg 73%
    03:00 +25°C° 0 mm 2 mps 737 mmHg 77%
    04:00 +24°C° 0 mm 2 mps 737 mmHg 82%
    05:00 +24°C° 0 mm 2 mps 737 mmHg 83%
    06:00 +24°C° 0 mm 2 mps 737 mmHg 84%
    07:00 +24°C° 0 mm 2 mps 738 mmHg 85%
    08:00 +27°C° 0 mm 2 mps 738 mmHg 73%
    09:00 +30°C° 0 mm 2 mps 739 mmHg 61%
    10:00 +34°C° 0 mm 3 mps 739 mmHg 50%
    11:00 +34°C° 0.1 mm 2 mps 739 mmHg 47%
    12:00 +35°C° 0.1 mm 2 mps 738 mmHg 45%
    13:00 +36°C° 0.1 mm 2 mps 738 mmHg 42%
    14:00 +35°C° 0 mm 2 mps 737 mmHg 43%
    15:00 +35°C° 0 mm 2 mps 736 mmHg 43%
    16:00 +35°C° 0 mm 2 mps 736 mmHg 43%
    17:00 +33°C° 0 mm 3 mps 736 mmHg 49%
    18:00 +31°C° 0 mm 3 mps 736 mmHg 54%
    19:00 +29°C° 0 mm 4 mps 737 mmHg 60%
    20:00 +28°C° 0 mm 3 mps 737 mmHg 66%
    21:00 +27°C° 0 mm 3 mps 737 mmHg 71%
    22:00 +26°C° 0 mm 3 mps 738 mmHg 77%
    23:00 +25°C° 0 mm 3 mps 738 mmHg 79%

    Day after tomorrow, 25 February, Monday

    Time Temperature Precipitation Wind Pressure Humidity
    00:00 +25°C° 0 mm 2 mps 738 mmHg 81%
    01:00 +24°C° 0 mm 2 mps 737 mmHg 84%
    02:00 +24°C° 0 mm 2 mps 737 mmHg 86%
    03:00 +23°C° 0 mm 2 mps 737 mmHg 89%
    04:00 +23°C° 0 mm 2 mps 736 mmHg 91%
    05:00 +23°C° 0 mm 2 mps 737 mmHg 90%
    06:00 +23°C° 0 mm 1 mps 737 mmHg 89%
    07:00 +23°C° 0 mm 1 mps 738 mmHg 89%
    08:00 +27°C° 0 mm 1 mps 738 mmHg 74%
    09:00 +30°C° 0 mm 1 mps 739 mmHg 59%
    10:00 +34°C° 0 mm 1 mps 740 mmHg 44%
    11:00 +36°C° 0 mm 1 mps 739 mmHg 38%
    12:00 +40°C° 0 mm 1 mps 738 mmHg 32%
    13:00 +39°C° 0 mm 0 mps 738 mmHg 27%
    14:00 +40°C° 0 mm 1 mps 737 mmHg 29%
    15:00 +39°C° 0 mm 1 mps 736 mmHg 31%
    16:00 +36°C° 0 mm 1 mps 736 mmHg 34%
    17:00 +35°C° 0 mm 2 mps 736 mmHg 40%
    18:00 +34°C° 0 mm 2 mps 736 mmHg 46%
    19:00 +31°C° 0 mm 3 mps 737 mmHg 51%
    20:00 +30°C° 0 mm 3 mps 737 mmHg 58%
    21:00 +28°C° 0 mm 3 mps 738 mmHg 66%
    22:00 +27°C° 0 mm 3 mps 738 mmHg 73%
    23:00 +26°C° 0 mm 3 mps 738 mmHg 75%

    26 February, Tuesday

    Time Temperature Precipitation Wind Pressure Humidity
    00:00 +25°C° 0 mm 3 mps 737 mmHg 78%
    01:00 +25°C° 0 mm 3 mps 737 mmHg 80%
    02:00 +24°C° 0 mm 2 mps 737 mmHg 83%
    03:00 +24°C° 0 mm 2 mps 737 mmHg 86%
    04:00 +23°C° 0 mm 1 mps 736 mmHg 89%
    05:00 +23°C° 0 mm 1 mps 737 mmHg 88%
    06:00 +23°C° 0 mm 1 mps 738 mmHg 88%
    07:00 +23°C° 0 mm 1 mps 738 mmHg 87%
    08:00 +27°C° 0 mm 1 mps 739 mmHg 72%
    09:00 +31°C° 0 mm 1 mps 739 mmHg 57%
    10:00 +34°C° 0 mm 1 mps 740 mmHg 42%
    11:00 +37°C° 0 mm 1 mps 739 mmHg 37%
    12:00 +40°C° 0 mm 1 mps 738 mmHg 32%
    13:00 +39°C° 0 mm 0 mps 737 mmHg 27%
    14:00 +37°C° 0 mm 0 mps 737 mmHg 28%
    15:00 +36°C° 0 mm 0 mps 736 mmHg 30%
    16:00 +34°C° 0 mm 0 mps 735 mmHg 32%
    17:00 +35°C° 0 mm 1 mps 736 mmHg 36%
    18:00 +35°C° 0 mm 2 mps 736 mmHg 39%
    19:00 +33°C° 0 mm 3 mps 737 mmHg 43%
    20:00 +31°C° 0 mm 3 mps 737 mmHg 51%
    21:00 +29°C° 0 mm 3 mps 737 mmHg 60%
    22:00 +28°C° 0 mm 3 mps 738 mmHg 68%
    23:00 +27°C° 0 mm 2 mps 738 mmHg 73%

    27 February, Wednesday

    Time Temperature Precipitation Wind Pressure Humidity
    00:00 +26°C° 0 mm 2 mps 737 mmHg 78%
    01:00 +25°C° 0 mm 1 mps 737 mmHg 84%
    02:00 +24°C° 0 mm 1 mps 737 mmHg 86%
    03:00 +24°C° 0 mm 2 mps 736 mmHg 88%
    04:00 +23°C° 0 mm 2 mps 736 mmHg 90%
    05:00 +24°C° 0 mm 1 mps 737 mmHg 89%
    06:00 +24°C° 0 mm 1 mps 737 mmHg 88%
    07:00 +24°C° 0 mm 1 mps 738 mmHg 87%
    08:00 +28°C° 0 mm 1 mps 738 mmHg 72%
    09:00 +31°C° 0 mm 1 mps 739 mmHg 56%
    10:00 +35°C° 0 mm 1 mps 739 mmHg 41%
    11:00 +35°C° 0 mm 0 mps 739 mmHg 35%
    12:00 +38°C° 0 mm 0 mps 738 mmHg 30%
    13:00 +40°C° 0 mm 0 mps 737 mmHg 25%
    14:00 +39°C° 0 mm 0 mps 736 mmHg 26%
    15:00 +37°C° 0 mm 0 mps 736 mmHg 27%
    16:00 +36°C° 0 mm 0 mps 735 mmHg 27%
    17:00 +36°C° 0 mm 1 mps 736 mmHg 32%
    18:00 +35°C° 0 mm 1 mps 736 mmHg 36%
    19:00 +33°C° 0 mm 1 mps 736 mmHg 40%
    20:00 +32°C° 0 mm 2 mps 736 mmHg 48%
    21:00 +30°C° 0 mm 2 mps 737 mmHg 57%
    22:00 +29°C° 0 mm 2 mps 737 mmHg 66%
    23:00 +28°C° 0 mm 2 mps 736 mmHg 70%

    28 February, Thursday

    Time Temperature Precipitation Wind Pressure Humidity
    00:00 +27°C° 0 mm 2 mps 736 mmHg 74%
    01:00 +26°C° 0 mm 2 mps 736 mmHg 78%
    02:00 +25°C° 0 mm 2 mps 735 mmHg 80%
    03:00 +25°C° 0 mm 1 mps 735 mmHg 81%
    04:00 +24°C° 0 mm 1 mps 735 mmHg 83%
    05:00 +24°C° 0 mm 1 mps 736 mmHg 81%
    06:00 +25°C° 0 mm 1 mps 736 mmHg 80%
    07:00 +25°C° 0 mm 1 mps 737 mmHg 79%
    08:00 +28°C° 0 mm 1 mps 737 mmHg 65%
    09:00 +32°C° 0 mm 1 mps 737 mmHg 52%
    10:00 +36°C° 0 mm 2 mps 738 mmHg 38%
    11:00 +37°C° 0 mm 1 mps 737 mmHg 33%
    12:00 +40°C° 0 mm 1 mps 736 mmHg 29%
    13:00 +42°C° 0 mm 1 mps 735 mmHg 25%
    14:00 +41°C° 0 mm 1 mps 735 mmHg 26%
    15:00 +39°C° 0 mm 1 mps 735 mmHg 27%
    16:00 +35°C° 0 mm 0 mps 734 mmHg 28%
    17:00 +36°C° 0 mm 1 mps 735 mmHg 31%
    18:00 +35°C° 0 mm 1 mps 735 mmHg 34%
    19:00 +33°C° 0 mm 1 mps 735 mmHg 36%
    20:00 +32°C° 0 mm 1 mps 736 mmHg 42%
    21:00 +31°C° 0 mm 1 mps 736 mmHg 47%
    22:00 +30°C° 0 mm 1 mps 736 mmHg 52%
    23:00 +29°C° 0 mm 1 mps 736 mmHg 58%
    Show more